START_TIME,STEP,MOV.,E45,t_acc.,ALAR?,t_acc.,A12,t_acc.,A24,t_acc.
1989-08-26T21:00:26.920 ,0,0,0.,4.8,0.,4.8,0.,4.8,0.,4.8
1989-08-26T21:00:31.720 ,0,0,0.,4.8,0.,4.8,0.,4.8,0.,4.8
1989-08-26T21:00:36.520 ,0,0,0.,4.8,0.,4.8,0.,4.8,0.,4.8
1989-08-26T21:00:41.320 ,0,0,0.,4.8,0.,4.8,0.,4.8,0.,4.8
1989-08-26T21:00:46.120 ,0,0,0.,4.8,0.,4.8,0.,4.8,0.,4.8
1989-08-26T21:00:50.920 ,1,0,0.,4.8,0.,4.8,0.,4.8,0.,4.8
1989-08-26T21:00:55.720 ,1,0,0.,4.8,0.,4.8,0.,4.8,0.,4.8
1989-08-26T21:01:00.520 ,1,0,0.,4.8,0.,4.8,0.,4.8,0.,4.8
1989-08-26T21:01:05.320 ,1,0,0.,4.8,0.,4.8,0.,4.8,0.,4.8
1989-08-26T21:01:10.120 ,1,0,0.,4.8,0.,4.8,0.,4.8,0.,4.8
1989-08-26T21:01:14.920 ,1,0,0.,4.8,0.,4.8,0.,4.8,0.,4.8
1989-08-26T21:01:19.720 ,1,0,0.,4.8,0.,4.8,0.,4.8,0.,4.8
1989-08-26T21:01:24.520 ,1,0,0.,4.8,0.,4.8,0.,4.8,0.,4.8
1989-08-26T21:01:29.320 ,1,0,0.,4.8,0.,4.8,0.,4.8,0.,4.8
1989-08-26T21:01:34.120 ,1,0,0.,4.8,0.,4.8,0.,4.8,0.,4.8
1989-08-26T21:01:38.920 ,2,0,0.,4.8,0.,4.8,0.,4.8,0.,4.8
1989-08-26T21:01:43.720 ,2,0,0.,4.8,0.,4.8,0.,4.8,0.,4.8
1989-08-26T21:01:48.520 ,2,0,0.,4.8,0.,4.8,0.,4.8,0.,4.8
1989-08-26T21:01:53.320 ,2,0,0.,4.8,0.,4.8,0.,4.8,0.,4.8
1989-08-26T21:01:58.120 ,2,0,0.,4.8,0.,4.8,0.,4.8,0.,4.8
1989-08-26T21:02:02.920 ,2,0,0.,4.8,0.,4.8,0.,4.8,0.,4.8
1989-08-26T21:02:07.720 ,2,0,0.,4.8,0.,4.8,0.,4.8,0.,4.8
1989-08-26T21:02:12.520 ,2,0,0.,4.8,0.,4.8,0.,4.8,0.,4.8
1989-08-26T21:02:17.320 ,2,0,0.,4.8,0.,4.8,0.,4.8,0.,4.8
1989-08-26T21:02:22.120 ,2,0,0.,4.8,0.,4.8,0.,4.8,0.,4.8
1989-08-26T21:02:26.920 ,3,0,0.,4.8,0.,4.8,0.,4.8,0.,4.8
1989-08-26T21:02:31.720 ,3,0,0.,4.8,0.,4.8,0.,4.8,0.,4.8
1989-08-26T21:02:36.520 ,3,0,0.,4.8,0.,4.8,0.,4.8,0.,4.8
1989-08-26T21:02:41.320 ,3,0,0.,4.8,0.,4.8,0.,4.8,0.,4.8
1989-08-26T21:02:46.120 ,3,0,0.,4.8,0.,4.8,0.,4.8,0.,4.8
1989-08-26T21:02:50.920 ,3,0,0.,4.8,0.,4.8,0.,4.8,0.,4.8
1989-08-26T21:02:55.720 ,3,0,0.,4.8,0.,4.8,0.,4.8,0.,4.8
1989-08-26T21:03:00.520 ,3,0,0.,4.8,0.,4.8,0.,4.8,0.,4.8
1989-08-26T21:03:05.320 ,3,0,0.,4.8,0.,4.8,0.,4.8,0.,4.8
1989-08-26T21:03:10.120 ,3,0,0.,4.8,0.,4.8,0.,4.8,0.,4.8
1989-08-26T21:03:14.920 ,4,0,0.,4.8,0.,4.8,0.,4.8,0.,4.8
1989-08-26T21:03:19.720 ,4,0,0.,4.8,0.,4.8,0.,4.8,0.,4.8
1989-08-26T21:03:24.520 ,4,0,0.,4.8,0.,4.8,0.,4.8,0.,4.8
1989-08-26T21:03:29.320 ,4,0,0.,4.8,0.,4.8,0.,4.8,0.,4.8
1989-08-26T21:03:34.120 ,4,0,0.,4.8,0.,4.8,0.,4.8,0.,4.8
1989-08-26T21:03:38.920 ,4,0,0.,4.8,0.,4.8,0.,4.8,0.,4.8
1989-08-26T21:03:43.720 ,4,0,0.,4.8,0.,4.8,0.,4.8,0.,4.8
1989-08-26T21:03:48.520 ,4,0,0.,4.8,0.,4.8,0.,4.8,0.,4.8
1989-08-26T21:03:53.320 ,4,0,0.,4.8,0.,4.8,0.,4.8,0.,4.8
1989-08-26T21:03:58.120 ,4,0,0.,4.8,0.,4.8,0.,4.8,0.,4.8
1989-08-26T21:04:02.920 ,5,0,0.,4.8,0.,4.8,0.,4.8,0.,4.8
1989-08-26T21:04:07.720 ,5,0,0.,4.8,0.,4.8,0.,4.8,0.,4.8
1989-08-26T21:04:12.520 ,5,0,0.,4.8,0.,4.8,0.,4.8,0.,4.8
1989-08-26T21:04:17.320 ,5,0,0.,4.8,0.,4.8,0.,4.8,0.,4.8
1989-08-26T21:04:22.120 ,5,0,0.,4.8,0.,4.8,0.,4.8,0.,4.8
1989-08-26T21:04:26.920 ,5,0,0.,4.8,0.,4.8,0.,4.8,0.,4.8
1989-08-26T21:04:31.720 ,5,0,0.,4.8,0.,4.8,0.,4.8,0.,4.8
1989-08-26T21:04:36.520 ,5,0,0.,4.8,0.,4.8,0.,4.8,0.,4.8
1989-08-26T21:04:41.320 ,5,0,0.,4.8,0.,4.8,0.,4.8,0.,4.8
1989-08-26T21:04:46.120 ,5,0,0.,4.8,0.,4.8,0.,4.8,0.,4.8
1989-08-26T21:04:50.920 ,6,0,0.,4.8,0.,4.8,0.,4.8,0.,4.8
1989-08-26T21:04:55.720 ,6,0,0.,4.8,0.,4.8,0.,4.8,0.,4.8
1989-08-26T21:05:00.520 ,6,0,0.,4.8,0.,4.8,0.,4.8,0.,4.8
1989-08-26T21:05:05.320 ,6,0,0.,4.8,0.,4.8,0.,4.8,0.,4.8
1989-08-26T21:05:10.120 ,6,0,0.,4.8,0.,4.8,0.,4.8,0.,4.8
1989-08-26T21:05:14.920 ,6,0,0.,4.8,0.,4.8,0.,4.8,0.,4.8
1989-08-26T21:05:19.720 ,6,0,0.,4.8,0.,4.8,0.,4.8,0.,4.8
1989-08-26T21:05:24.520 ,6,0,0.,4.8,0.,4.8,0.,4.8,0.,4.8
1989-08-26T21:05:29.320 ,6,0,0.,4.8,0.,4.8,0.,4.8,0.,4.8
1989-08-26T21:05:34.120 ,6,0,0.,4.8,0.,4.8,0.,4.8,0.,4.8
1989-08-26T21:05:38.920 ,7,0,0.,4.8,0.,4.8,0.,4.8,0.,4.8
1989-08-26T21:05:43.720 ,7,0,0.,4.8,0.,4.8,0.,4.8,0.,4.8
1989-08-26T21:05:48.520 ,7,0,0.,4.8,0.,4.8,0.,4.8,0.,4.8
1989-08-26T21:05:53.320 ,7,0,0.,4.8,0.,4.8,0.,4.8,0.,4.8
1989-08-26T21:05:58.120 ,7,0,0.,4.8,0.,4.8,0.,4.8,0.,4.8
1989-08-26T21:06:02.920 ,7,0,0.,4.8,0.,4.8,0.,4.8,0.,4.8
1989-08-26T21:06:07.720 ,7,0,0.,4.8,0.,4.8,0.,4.8,0.,4.8
1989-08-26T21:06:12.520 ,7,0,0.,4.8,0.,4.8,0.,4.8,0.,4.8
1989-08-26T21:06:17.320 ,7,0,0.,4.8,0.,4.8,0.,4.8,0.,4.8
1989-08-26T21:06:22.120 ,7,0,0.,4.8,0.,4.8,0.,4.8,0.,4.8
1989-08-26T21:06:26.920 ,7,0,0.,4.8,0.,4.8,0.,4.8,0.,4.8
1989-08-26T21:06:31.720 ,7,0,0.,4.8,0.,4.8,0.,4.8,0.,4.8
1989-08-26T21:06:36.520 ,7,0,0.,4.8,0.,4.8,0.,4.8,0.,4.8
1989-08-26T21:06:41.320 ,7,0,0.,4.8,0.,4.8,0.,4.8,0.,4.8
1989-08-26T21:06:46.120 ,7,0,0.,4.8,0.,4.8,0.,4.8,0.,4.8
1989-08-26T21:06:50.920 ,7,0,0.,4.8,0.,4.8,0.,4.8,0.,4.8
1989-08-26T21:06:55.720 ,7,0,0.,4.8,0.,4.8,0.,4.8,0.,4.8
1989-08-26T21:07:00.520 ,7,0,0.,4.8,0.,4.8,0.,4.8,0.,4.8
1989-08-26T21:07:05.320 ,7,0,0.,4.8,0.,4.8,0.,4.8,0.,4.8
1989-08-26T21:07:10.120 ,7,0,0.,4.8,0.,4.8,0.,4.8,0.,4.8
1989-08-26T21:07:14.920 ,6,0,0.,4.8,0.,4.8,0.,4.8,0.,4.8
1989-08-26T21:07:19.720 ,6,0,0.,4.8,0.,4.8,0.,4.8,0.,4.8
1989-08-26T21:07:24.520 ,6,0,0.,4.8,0.,4.8,0.,4.8,0.,4.8
1989-08-26T21:07:29.320 ,6,0,0.,4.8,0.,4.8,0.,4.8,0.,4.8
1989-08-26T21:07:34.120 ,6,0,0.,4.8,0.,4.8,0.,4.8,0.,4.8
1989-08-26T21:07:38.920 ,6,0,0.,4.8,0.,4.8,0.,4.8,0.,4.8
1989-08-26T21:07:43.720 ,6,0,0.,4.8,0.,4.8,0.,4.8,0.,4.8
1989-08-26T21:07:48.520 ,6,0,0.,4.8,0.,4.8,0.,4.8,0.,4.8
1989-08-26T21:07:53.320 ,6,0,0.,4.8,0.,4.8,0.,4.8,0.,4.8
1989-08-26T21:07:58.120 ,6,0,0.,4.8,0.,4.8,0.,4.8,0.,4.8
1989-08-26T21:08:02.920 ,5,0,0.,4.8,0.,4.8,0.,4.8,0.,4.8
1989-08-26T21:08:07.720 ,5,0,0.,4.8,0.,4.8,0.,4.8,0.,4.8
1989-08-26T21:08:12.520 ,5,0,0.,4.8,0.,4.8,0.,4.8,0.,4.8
1989-08-26T21:08:17.320 ,5,0,0.,4.8,0.,4.8,0.,4.8,0.,4.8
1989-08-26T21:08:22.120 ,5,0,0.,4.8,0.,4.8,0.,4.8,0.,4.8
1989-08-26T21:08:26.920 ,5,0,0.,4.8,0.,4.8,0.,4.8,0.,4.8
1989-08-26T21:08:31.720 ,5,0,0.,4.8,0.,4.8,0.,4.8,0.,4.8
1989-08-26T21:08:36.520 ,5,0,0.,4.8,0.,4.8,0.,4.8,0.,4.8
1989-08-26T21:08:41.320 ,5,0,0.,4.8,0.,4.8,0.,4.8,0.,4.8
1989-08-26T21:08:46.120 ,5,0,0.,4.8,0.,4.8,0.,4.8,0.,4.8
1989-08-26T21:08:50.920 ,4,0,0.,4.8,0.,4.8,0.,4.8,0.,4.8
1989-08-26T21:08:55.720 ,4,0,0.,4.8,0.,4.8,0.,4.8,0.,4.8
1989-08-26T21:09:00.520 ,4,0,0.,4.8,0.,4.8,0.,4.8,0.,4.8
1989-08-26T21:09:05.320 ,4,0,0.,4.8,0.,4.8,0.,4.8,0.,4.8
1989-08-26T21:09:10.120 ,4,0,0.,4.8,0.,4.8,0.,4.8,0.,4.8
1989-08-26T21:09:14.920 ,4,0,0.,4.8,0.,4.8,0.,4.8,0.,4.8
1989-08-26T21:09:19.720 ,4,0,0.,4.8,0.,4.8,0.,4.8,0.,4.8
1989-08-26T21:09:24.520 ,4,0,0.,4.8,0.,4.8,0.,4.8,0.,4.8
1989-08-26T21:09:29.320 ,4,0,0.,4.8,0.,4.8,0.,4.8,0.,4.8
1989-08-26T21:09:34.120 ,4,0,0.,4.8,0.,4.8,0.,4.8,0.,4.8
1989-08-26T21:09:38.920 ,3,0,0.,4.8,0.,4.8,0.,4.8,0.,4.8
1989-08-26T21:09:43.720 ,3,0,0.,4.8,0.,4.8,0.,4.8,0.,4.8
1989-08-26T21:09:48.520 ,3,0,0.,4.8,0.,4.8,0.,4.8,0.,4.8
1989-08-26T21:09:53.320 ,3,0,0.,4.8,0.,4.8,0.,4.8,0.,4.8
1989-08-26T21:09:58.120 ,3,0,0.,4.8,0.,4.8,0.,4.8,0.,4.8
1989-08-26T21:10:02.920 ,3,0,0.,4.8,0.,4.8,0.,4.8,0.,4.8
1989-08-26T21:10:07.720 ,3,0,0.,4.8,0.,4.8,0.,4.8,0.,4.8
1989-08-26T21:10:12.520 ,3,0,0.,4.8,0.,4.8,0.,4.8,0.,4.8
1989-08-26T21:10:17.320 ,3,0,0.,4.8,0.,4.8,0.,4.8,0.,4.8
1989-08-26T21:10:22.120 ,3,0,0.,4.8,0.,4.8,0.,4.8,0.,4.8
1989-08-26T21:10:26.920 ,2,0,0.,4.8,0.,4.8,0.,4.8,0.,4.8
1989-08-26T21:10:31.720 ,2,0,0.,4.8,0.,4.8,0.,4.8,0.,4.8
1989-08-26T21:10:36.520 ,2,0,0.,4.8,0.,4.8,0.,4.8,0.,4.8
1989-08-26T21:10:41.320 ,2,0,0.,4.8,0.,4.8,0.,4.8,0.,4.8
1989-08-26T21:10:46.120 ,2,0,0.,4.8,0.,4.8,0.,4.8,0.,4.8
1989-08-26T21:10:50.920 ,2,0,0.,4.8,0.,4.8,0.,4.8,0.,4.8
1989-08-26T21:10:55.720 ,2,0,0.,4.8,0.,4.8,0.,4.8,0.,4.8
1989-08-26T21:11:00.520 ,2,0,0.,4.8,0.,4.8,0.,4.8,0.,4.8
1989-08-26T21:11:05.320 ,2,0,0.,4.8,0.,4.8,0.,4.8,0.,4.8
1989-08-26T21:11:10.120 ,2,0,0.,4.8,0.,4.8,0.,4.8,0.,4.8
1989-08-26T21:11:14.920 ,1,0,0.,4.8,0.,4.8,0.,4.8,0.,4.8
1989-08-26T21:11:19.720 ,1,0,0.,4.8,0.,4.8,0.,4.8,0.,4.8
1989-08-26T21:11:24.520 ,1,0,0.,4.8,0.,4.8,0.,4.8,0.,4.8
1989-08-26T21:11:29.320 ,1,0,0.,4.8,0.,4.8,0.,4.8,0.,4.8
1989-08-26T21:11:34.120 ,1,0,0.,4.8,0.,4.8,0.,4.8,0.,4.8
1989-08-26T21:11:38.920 ,1,0,0.,4.8,0.,4.8,0.,4.8,0.,4.8
1989-08-26T21:11:43.720 ,1,0,0.,4.8,0.,4.8,0.,4.8,0.,4.8
1989-08-26T21:11:48.520 ,1,0,0.,4.8,0.,4.8,0.,4.8,0.,4.8
1989-08-26T21:11:53.320 ,1,0,0.,4.8,0.,4.8,0.,4.8,0.,4.8
1989-08-26T21:11:58.120 ,1,0,0.,4.8,0.,4.8,0.,4.8,0.,4.8
1989-08-26T21:12:02.920 ,0,0,0.,4.8,0.,4.8,0.,4.8,0.,4.8
1989-08-26T21:12:07.720 ,0,0,0.,4.8,0.,4.8,0.,4.8,0.,4.8
1989-08-26T21:12:12.520 ,0,0,0.,4.8,0.,4.8,0.,4.8,0.,4.8
1989-08-26T21:12:17.320 ,0,0,0.,4.8,0.,4.8,0.,4.8,0.,4.8
1989-08-26T21:12:22.120 ,0,0,0.,4.8,0.,4.8,0.,4.8,0.,4.8
1989-08-26T21:12:26.920 ,0,0,0.,4.8,0.,4.8,0.,4.8,0.,4.8
1989-08-26T21:12:31.720 ,0,0,0.,4.8,0.,4.8,0.,4.8,0.,4.8
1989-08-26T21:12:36.520 ,0,0,0.,4.8,0.,4.8,0.,4.8,0.,4.8
1989-08-26T21:12:41.320 ,0,0,0.,4.8,0.,4.8,0.,4.8,0.,4.8
1989-08-26T21:12:46.120 ,0,0,0.,4.8,0.,4.8,0.,4.8,0.,4.8
1989-08-26T21:12:50.920 ,0,0,0.,4.8,0.,4.8,0.,4.8,0.,4.8
1989-08-26T21:12:55.720 ,0,0,0.,4.8,0.,4.8,0.,4.8,0.,4.8
1989-08-26T21:13:00.520 ,0,0,0.,4.8,0.,4.8,0.,4.8,0.,4.8
1989-08-26T21:13:05.320 ,0,0,0.,4.8,0.,4.8,0.,4.8,0.,4.8
1989-08-26T21:13:10.120 ,0,0,0.,4.8,0.,4.8,0.,4.8,0.,4.8
1989-08-26T21:13:14.920 ,0,0,0.,4.8,0.,4.8,0.,4.8,0.,4.8
1989-08-26T21:13:19.720 ,0,0,0.,4.8,0.,4.8,0.,4.8,0.,4.8
1989-08-26T21:13:24.520 ,0,0,0.,4.8,0.,4.8,0.,4.8,0.,4.8
1989-08-26T21:13:29.320 ,0,0,0.,4.8,0.,4.8,0.,4.8,0.,4.8
1989-08-26T21:13:34.120 ,0,0,0.,4.8,0.,4.8,0.,4.8,0.,4.8
1989-08-26T21:13:38.920 ,1,0,0.,4.8,0.,4.8,0.,4.8,0.,4.8
1989-08-26T21:13:43.720 ,1,0,0.,4.8,0.,4.8,0.,4.8,0.,4.8
1989-08-26T21:13:48.520 ,1,0,0.,4.8,0.,4.8,0.,4.8,0.,4.8
1989-08-26T21:13:53.320 ,1,0,0.,4.8,0.,4.8,0.,4.8,0.,4.8
1989-08-26T21:13:58.120 ,1,0,0.,4.8,0.,4.8,0.,4.8,0.,4.8
1989-08-26T21:14:02.920 ,0,0,0.,4.8,0.,4.8,0.,4.8,0.,4.8
1989-08-26T21:14:07.720 ,0,0,0.,4.8,0.,4.8,0.,4.8,0.,4.8
1989-08-26T21:14:12.520 ,0,0,0.,4.8,0.,4.8,0.,4.8,0.,4.8
1989-08-26T21:14:17.320 ,0,0,0.,4.8,0.,4.8,0.,4.8,0.,4.8
1989-08-26T21:14:22.120 ,0,0,,0,,0,,0,,0
1989-08-26T21:14:44.920 ,0,0,,0,,0,,0,,0
1989-08-26T21:14:49.720 ,0,0,,0,,0,,0,,0
1989-08-26T21:14:54.520 ,0,0,,0,,0,,0,,0
1989-08-26T21:14:59.320 ,0,0,0.,4.8,0.,4.8,0.,4.8,0.,4.8
1989-08-26T21:15:04.120 ,0,0,0.,4.8,0.,4.8,0.,4.8,0.,4.8
1989-08-26T21:14:50.920 ,0,0,0.,4.8,0.,4.8,0.,4.8,0.,4.8
1989-08-26T21:14:55.720 ,0,0,0.,4.8,0.,4.8,0.,4.8,0.,4.8
1989-08-26T21:15:00.520 ,0,0,0.,4.8,0.,4.8,0.,4.8,0.,4.8
1989-08-26T21:15:05.320 ,0,0,0.,4.8,0.,4.8,0.,4.8,0.,4.8
1989-08-26T21:15:10.120 ,0,0,0.,4.8,0.,4.8,0.,4.8,0.,4.8
1989-08-26T21:15:14.920 ,3,0,0.,4.8,0.,4.8,0.,4.8,0.,4.8
1989-08-26T21:15:19.720 ,3,0,0.,4.8,0.,4.8,0.,4.8,0.,4.8
1989-08-26T21:15:24.520 ,3,0,0.,4.8,0.,4.8,0.,4.8,0.,4.8
1989-08-26T21:15:29.320 ,3,0,0.,4.8,0.,4.8,0.,4.8,0.,4.8
1989-08-26T21:15:34.120 ,3,0,0.,4.8,0.,4.8,0.,4.8,0.,4.8
1989-08-26T21:15:38.920 ,3,0,0.,4.8,0.,4.8,0.,4.8,0.,4.8
1989-08-26T21:15:43.720 ,3,0,0.,4.8,0.,4.8,0.,4.8,0.,4.8
1989-08-26T21:15:48.520 ,3,0,0.,4.8,0.,4.8,0.,4.8,0.,4.8
1989-08-26T21:15:53.320 ,3,0,0.,4.8,0.,4.8,0.,4.8,0.,4.8
1989-08-26T21:15:58.120 ,3,0,0.,4.8,0.,4.8,0.,4.8,0.,4.8
1989-08-26T21:16:02.920 ,4,0,0.,4.8,0.,4.8,0.,4.8,0.,4.8
1989-08-26T21:16:07.720 ,4,0,0.,4.8,0.,4.8,0.,4.8,0.,4.8
1989-08-26T21:16:12.520 ,4,0,0.,4.8,0.,4.8,0.,4.8,0.,4.8
1989-08-26T21:16:17.320 ,4,0,0.,4.8,0.,4.8,0.,4.8,0.,4.8
1989-08-26T21:16:22.120 ,4,0,0.,4.8,0.,4.8,0.,4.8,0.,4.8
1989-08-26T21:16:26.920 ,4,0,0.,4.8,0.,4.8,0.,4.8,0.,4.8
1989-08-26T21:16:31.720 ,4,0,0.,4.8,0.,4.8,0.,4.8,0.,4.8
1989-08-26T21:16:36.520 ,4,0,0.,4.8,0.,4.8,0.,4.8,0.,4.8
1989-08-26T21:16:41.320 ,4,0,0.,4.8,0.,4.8,0.,4.8,0.,4.8
1989-08-26T21:16:46.120 ,4,0,0.,4.8,0.,4.8,0.,4.8,0.,4.8
1989-08-26T21:16:50.920 ,5,0,0.,4.8,0.,4.8,0.,4.8,0.,4.8
1989-08-26T21:16:55.720 ,5,0,0.,4.8,0.,4.8,0.,4.8,0.,4.8
1989-08-26T21:17:00.520 ,5,0,0.,4.8,0.,4.8,0.,4.8,0.,4.8
1989-08-26T21:17:05.320 ,5,0,0.,4.8,0.,4.8,0.,4.8,0.,4.8
1989-08-26T21:17:10.120 ,5,0,0.,4.8,0.,4.8,0.,4.8,0.,4.8
1989-08-26T21:17:14.920 ,5,0,0.,4.8,0.,4.8,0.,4.8,0.,4.8
1989-08-26T21:17:19.720 ,5,0,0.,4.8,0.,4.8,0.,4.8,0.,4.8
1989-08-26T21:17:24.520 ,5,0,0.,4.8,0.,4.8,0.,4.8,0.,4.8
1989-08-26T21:17:29.320 ,5,0,0.,4.8,0.,4.8,0.,4.8,0.,4.8
1989-08-26T21:17:34.120 ,5,0,0.,4.8,0.,4.8,0.,4.8,0.,4.8
1989-08-26T21:17:38.920 ,6,0,0.,4.8,0.,4.8,0.,4.8,0.,4.8
1989-08-26T21:17:43.720 ,6,0,0.,4.8,0.,4.8,0.,4.8,0.,4.8
1989-08-26T21:17:48.520 ,6,0,0.,4.8,0.,4.8,0.,4.8,0.,4.8
1989-08-26T21:17:53.320 ,6,0,0.,4.8,0.,4.8,0.,4.8,0.,4.8
1989-08-26T21:17:58.120 ,6,0,0.,4.8,0.,4.8,0.,4.8,0.,4.8
1989-08-26T21:18:02.920 ,6,0,0.,4.8,0.,4.8,0.,4.8,0.,4.8
1989-08-26T21:18:07.720 ,6,0,0.,4.8,0.,4.8,0.,4.8,0.,4.8
1989-08-26T21:18:12.520 ,6,0,0.,4.8,0.,4.8,0.,4.8,0.,4.8
1989-08-26T21:18:17.320 ,6,0,0.,4.8,0.,4.8,0.,4.8,0.,4.8
1989-08-26T21:18:22.120 ,6,0,0.,4.8,0.,4.8,0.,4.8,0.,4.8
1989-08-26T21:18:26.920 ,7,0,0.,4.8,0.,4.8,0.,4.8,0.,4.8
1989-08-26T21:18:31.720 ,7,0,0.,4.8,0.,4.8,0.,4.8,0.,4.8
1989-08-26T21:18:36.520 ,7,0,0.,4.8,0.,4.8,0.,4.8,0.,4.8
1989-08-26T21:18:41.320 ,7,0,0.,4.8,0.,4.8,0.,4.8,0.,4.8
1989-08-26T21:18:46.120 ,7,0,0.,4.8,0.,4.8,0.,4.8,0.,4.8
1989-08-26T21:18:50.920 ,7,0,0.,4.8,0.,4.8,0.,4.8,0.,4.8
1989-08-26T21:18:55.720 ,7,0,0.,4.8,0.,4.8,0.,4.8,0.,4.8
1989-08-26T21:19:00.520 ,7,0,0.,4.8,0.,4.8,0.,4.8,0.,4.8
1989-08-26T21:19:05.320 ,7,0,0.,4.8,0.,4.8,0.,4.8,0.,4.8
1989-08-26T21:19:10.120 ,7,0,0.,4.8,0.,4.8,0.,4.8,0.,4.8
1989-08-26T21:19:14.920 ,7,0,0.,4.8,0.,4.8,0.,4.8,0.,4.8
1989-08-26T21:19:19.720 ,7,0,0.,4.8,0.,4.8,0.,4.8,0.,4.8
1989-08-26T21:19:24.520 ,7,0,0.,4.8,0.,4.8,0.,4.8,0.,4.8
1989-08-26T21:19:29.320 ,7,0,0.,4.8,0.,4.8,0.,4.8,0.,4.8
1989-08-26T21:19:34.120 ,7,0,0.,4.8,0.,4.8,0.,4.8,0.,4.8
1989-08-26T21:19:38.920 ,7,0,0.,4.8,0.,4.8,0.,4.8,0.,4.8
1989-08-26T21:19:43.720 ,7,0,0.,4.8,0.,4.8,0.,4.8,0.,4.8
1989-08-26T21:19:48.520 ,7,0,0.,4.8,0.,4.8,0.,4.8,0.,4.8
1989-08-26T21:19:53.320 ,7,0,0.,4.8,0.,4.8,0.,4.8,0.,4.8
1989-08-26T21:19:58.120 ,7,0,0.,4.8,0.,4.8,0.,4.8,0.,4.8
1989-08-26T21:20:02.920 ,6,0,0.,4.8,0.,4.8,0.,4.8,0.,4.8
1989-08-26T21:20:07.720 ,6,0,0.,4.8,0.,4.8,0.,4.8,0.,4.8
1989-08-26T21:20:12.520 ,6,0,0.,4.8,0.,4.8,0.,4.8,0.,4.8
1989-08-26T21:20:17.320 ,6,0,0.,4.8,0.,4.8,0.,4.8,0.,4.8
1989-08-26T21:20:22.120 ,6,0,0.,4.8,0.,4.8,0.,4.8,0.,4.8
1989-08-26T21:20:26.920 ,6,0,0.,4.8,0.,4.8,0.,4.8,0.,4.8
1989-08-26T21:20:31.720 ,6,0,0.,4.8,0.,4.8,0.,4.8,0.,4.8
1989-08-26T21:20:36.520 ,6,0,0.,4.8,0.,4.8,0.,4.8,0.,4.8
1989-08-26T21:20:41.320 ,6,0,0.,4.8,0.,4.8,0.,4.8,0.,4.8
1989-08-26T21:20:46.120 ,6,0,0.,4.8,0.,4.8,0.,4.8,0.,4.8
1989-08-26T21:20:50.920 ,5,0,0.,4.8,0.,4.8,0.,4.8,0.,4.8
1989-08-26T21:20:55.720 ,5,0,0.,4.8,0.,4.8,0.,4.8,0.,4.8
1989-08-26T21:21:00.520 ,5,0,0.,4.8,0.,4.8,0.,4.8,0.,4.8
1989-08-26T21:21:05.320 ,5,0,0.,4.8,0.,4.8,0.,4.8,0.,4.8
1989-08-26T21:21:10.120 ,5,0,0.,4.8,0.,4.8,0.,4.8,0.,4.8
1989-08-26T21:21:14.920 ,5,0,0.,4.8,0.,4.8,0.,4.8,0.,4.8
1989-08-26T21:21:19.720 ,5,0,0.,4.8,0.,4.8,0.,4.8,0.,4.8
1989-08-26T21:21:24.520 ,5,0,0.,4.8,0.,4.8,0.,4.8,0.,4.8
1989-08-26T21:21:29.320 ,5,0,0.,4.8,0.,4.8,0.,4.8,0.,4.8
1989-08-26T21:21:34.120 ,5,0,0.,4.8,0.,4.8,0.,4.8,0.,4.8
1989-08-26T21:21:38.920 ,4,0,0.,4.8,0.,4.8,0.,4.8,0.,4.8
1989-08-26T21:21:43.720 ,4,0,0.,4.8,0.,4.8,0.,4.8,0.,4.8
1989-08-26T21:21:48.520 ,4,0,0.,4.8,0.,4.8,0.,4.8,0.,4.8
1989-08-26T21:21:53.320 ,4,0,0.,4.8,0.,4.8,0.,4.8,0.,4.8
1989-08-26T21:21:58.120 ,4,0,0.,4.8,0.,4.8,0.,4.8,0.,4.8
1989-08-26T21:22:02.920 ,4,0,0.,4.8,0.,4.8,0.,4.8,0.,4.8
1989-08-26T21:22:07.720 ,4,0,0.,4.8,0.,4.8,0.,4.8,0.,4.8
1989-08-26T21:22:12.520 ,4,0,0.,4.8,0.,4.8,0.,4.8,0.,4.8
1989-08-26T21:22:17.320 ,4,0,0.,4.8,0.,4.8,0.,4.8,0.,4.8
1989-08-26T21:22:22.120 ,4,0,0.,4.8,0.,4.8,0.,4.8,0.,4.8
1989-08-26T21:22:26.920 ,0,0,,0,,0,,0,,0
1989-08-26T21:22:31.720 ,0,0,,0,,0,,0,,0
1989-08-26T21:22:36.520 ,0,0,,0,,0,,0,,0
1989-08-26T21:22:41.320 ,0,0,,0,,0,,0,,0
1989-08-26T21:22:46.120 ,0,0,,0,,0,,0,,0
1989-08-26T21:22:50.920 ,0,0,,0,,0,,0,,0
1989-08-26T21:22:55.720 ,0,0,,0,,0,,0,,0
1989-08-26T21:23:00.520 ,0,0,,0,,0,,0,,0
1989-08-26T21:23:05.320 ,0,0,,0,,0,,0,,0
1989-08-26T21:23:10.120 ,0,0,,0,,0,,0,,0
1989-08-26T21:24:01.720 ,0,0,,0,,0,,0,,0
1989-08-26T21:24:06.520 ,0,0,,0,,0,,0,,0
1989-08-26T21:24:11.320 ,0,0,,0,,0,,0,,0
1989-08-26T21:24:16.120 ,0,0,,0,,0,,0,,0
1989-08-26T21:24:20.920 ,0,0,0.,4.8,0.,4.8,0.,4.8,0.,4.8
1989-08-26T21:24:02.920 ,0,0,0.,4.8,0.,4.8,0.,4.8,0.,4.8
1989-08-26T21:24:07.720 ,0,0,0.,4.8,0.,4.8,0.,4.8,0.,4.8
1989-08-26T21:24:12.520 ,0,0,0.,4.8,0.,4.8,0.,4.8,0.,4.8
1989-08-26T21:24:17.320 ,0,0,0.,4.8,0.,4.8,0.,4.8,0.,4.8
1989-08-26T21:24:22.120 ,0,0,0.,4.8,0.,4.8,0.,4.8,0.,4.8
1989-08-26T21:24:26.920 ,0,0,0.,4.8,0.,4.8,0.,4.8,0.,4.8
1989-08-26T21:24:31.720 ,0,0,0.,4.8,0.,4.8,0.,4.8,0.,4.8
1989-08-26T21:24:36.520 ,0,0,0.,4.8,0.,4.8,0.,4.8,0.,4.8
1989-08-26T21:24:41.320 ,0,0,0.,4.8,0.,4.8,0.,4.8,0.,4.8
1989-08-26T21:24:46.120 ,0,0,0.,4.8,0.,4.8,0.,4.8,0.,4.8
1989-08-26T21:24:50.920 ,0,0,0.,4.8,0.,4.8,0.,4.8,0.,4.8
1989-08-26T21:24:55.720 ,0,0,0.,4.8,0.,4.8,0.,4.8,0.,4.8
1989-08-26T21:25:00.520 ,0,0,0.,4.8,0.,4.8,0.,4.8,0.,4.8
1989-08-26T21:25:05.320 ,0,0,0.,4.8,0.,4.8,0.,4.8,0.,4.8
1989-08-26T21:25:10.120 ,0,0,0.,4.8,0.,4.8,0.,4.8,0.,4.8
1989-08-26T21:25:14.920 ,0,0,0.,4.8,0.,4.8,0.,4.8,0.,4.8
1989-08-26T21:25:19.720 ,0,0,0.,4.8,0.,4.8,0.,4.8,0.,4.8
1989-08-26T21:25:24.520 ,0,0,0.,4.8,0.,4.8,0.,4.8,0.,4.8
1989-08-26T21:25:29.320 ,0,0,0.,4.8,0.,4.8,0.,4.8,0.,4.8
1989-08-26T21:25:34.120 ,0,0,0.,4.8,0.,4.8,0.,4.8,0.,4.8
1989-08-26T21:25:38.920 ,0,0,0.,4.8,0.,4.8,0.,4.8,0.,4.8
1989-08-26T21:25:43.720 ,0,0,0.,4.8,0.,4.8,0.,4.8,0.,4.8
1989-08-26T21:25:48.520 ,0,0,0.,4.8,0.,4.8,0.,4.8,0.,4.8
1989-08-26T21:25:53.320 ,0,0,0.,4.8,0.,4.8,0.,4.8,0.,4.8
1989-08-26T21:25:58.120 ,0,0,0.,4.8,0.,4.8,0.,4.8,0.,4.8
1989-08-26T21:26:02.920 ,0,0,0.,4.8,0.,4.8,0.,4.8,0.,4.8
1989-08-26T21:26:07.720 ,0,0,0.,4.8,0.,4.8,0.,4.8,0.,4.8
1989-08-26T21:26:12.520 ,0,0,0.,4.8,0.,4.8,0.,4.8,0.,4.8
1989-08-26T21:26:17.320 ,0,0,0.,4.8,0.,4.8,0.,4.8,0.,4.8
1989-08-26T21:26:22.120 ,0,0,0.,4.8,0.,4.8,0.,4.8,0.,4.8
1989-08-26T21:26:26.920 ,1,0,0.,4.8,0.,4.8,0.,4.8,0.,4.8
1989-08-26T21:26:31.720 ,1,0,0.,4.8,0.,4.8,0.,4.8,0.,4.8
1989-08-26T21:26:36.520 ,1,0,0.,4.8,0.,4.8,0.,4.8,0.,4.8
1989-08-26T21:26:41.320 ,1,0,0.,4.8,0.,4.8,0.,4.8,0.,4.8
1989-08-26T21:26:46.120 ,1,0,0.,4.8,0.,4.8,0.,4.8,0.,4.8
1989-08-26T21:26:50.920 ,1,0,0.,4.8,0.,4.8,0.,4.8,0.,4.8
1989-08-26T21:26:55.720 ,1,0,0.,4.8,0.,4.8,0.,4.8,0.,4.8
1989-08-26T21:27:00.520 ,1,0,0.,4.8,0.,4.8,0.,4.8,0.,4.8
1989-08-26T21:27:05.320 ,1,0,0.,4.8,0.,4.8,0.,4.8,0.,4.8
1989-08-26T21:27:10.120 ,1,0,0.,4.8,0.,4.8,0.,4.8,0.,4.8
1989-08-26T21:27:14.920 ,2,0,0.,4.8,0.,4.8,0.,4.8,0.,4.8
1989-08-26T21:27:19.720 ,2,0,0.,4.8,0.,4.8,0.,4.8,0.,4.8
1989-08-26T21:27:24.520 ,2,0,0.,4.8,0.,4.8,0.,4.8,0.,4.8
1989-08-26T21:27:29.320 ,2,0,0.,4.8,0.,4.8,0.,4.8,0.,4.8
1989-08-26T21:27:34.120 ,2,0,0.,4.8,0.,4.8,0.,4.8,0.,4.8
1989-08-26T21:27:38.920 ,2,0,0.,4.8,0.,4.8,0.,4.8,0.,4.8
1989-08-26T21:27:43.720 ,2,0,0.,4.8,0.,4.8,0.,4.8,0.,4.8
1989-08-26T21:27:48.520 ,2,0,0.,4.8,0.,4.8,0.,4.8,0.,4.8
1989-08-26T21:27:53.320 ,2,0,0.,4.8,0.,4.8,0.,4.8,0.,4.8
1989-08-26T21:27:58.120 ,2,0,0.,4.8,0.,4.8,0.,4.8,0.,4.8
1989-08-26T21:28:02.920 ,3,0,0.,4.8,0.,4.8,0.,4.8,0.,4.8
1989-08-26T21:28:07.720 ,3,0,0.,4.8,0.,4.8,0.,4.8,0.,4.8
1989-08-26T21:28:12.520 ,3,0,0.,4.8,0.,4.8,0.,4.8,0.,4.8
1989-08-26T21:28:17.320 ,3,0,0.,4.8,0.,4.8,0.,4.8,0.,4.8
1989-08-26T21:28:22.120 ,3,0,0.,4.8,0.,4.8,0.,4.8,0.,4.8
1989-08-26T21:28:26.920 ,3,0,0.,4.8,0.,4.8,0.,4.8,0.,4.8
1989-08-26T21:28:31.720 ,3,0,0.,4.8,0.,4.8,0.,4.8,0.,4.8
1989-08-26T21:28:36.520 ,3,0,0.,4.8,0.,4.8,0.,4.8,0.,4.8
1989-08-26T21:28:41.320 ,3,0,0.,4.8,0.,4.8,0.,4.8,0.,4.8
1989-08-26T21:28:46.120 ,3,0,0.,4.8,0.,4.8,0.,4.8,0.,4.8
1989-08-26T21:28:50.920 ,4,0,0.,4.8,0.,4.8,0.,4.8,0.,4.8
1989-08-26T21:28:55.720 ,4,0,0.,4.8,0.,4.8,0.,4.8,0.,4.8
1989-08-26T21:29:00.520 ,4,0,0.,4.8,0.,4.8,0.,4.8,0.,4.8
1989-08-26T21:29:05.320 ,4,0,0.,4.8,0.,4.8,0.,4.8,0.,4.8
1989-08-26T21:29:10.120 ,4,0,0.,4.8,0.,4.8,0.,4.8,0.,4.8
1989-08-26T21:29:14.920 ,4,0,0.,4.8,0.,4.8,0.,4.8,0.,4.8
1989-08-26T21:29:19.720 ,4,0,0.,4.8,0.,4.8,0.,4.8,0.,4.8
1989-08-26T21:29:24.520 ,4,0,0.,4.8,0.,4.8,0.,4.8,0.,4.8
1989-08-26T21:29:29.320 ,4,0,0.,4.8,0.,4.8,0.,4.8,0.,4.8
1989-08-26T21:29:34.120 ,4,0,0.,4.8,0.,4.8,0.,4.8,0.,4.8
1989-08-26T21:29:38.920 ,5,0,0.,4.8,0.,4.8,0.,4.8,0.,4.8
1989-08-26T21:29:43.720 ,5,0,0.,4.8,0.,4.8,0.,4.8,0.,4.8
1989-08-26T21:29:48.520 ,5,0,0.,4.8,0.,4.8,0.,4.8,0.,4.8
1989-08-26T21:29:53.320 ,5,0,0.,4.8,0.,4.8,0.,4.8,0.,4.8
1989-08-26T21:29:58.120 ,5,0,0.,4.8,0.,4.8,0.,4.8,0.,4.8
1989-08-26T21:30:02.920 ,5,0,0.,4.8,0.,4.8,0.,4.8,0.,4.8
1989-08-26T21:30:07.720 ,5,0,0.,4.8,0.,4.8,0.,4.8,0.,4.8
1989-08-26T21:30:12.520 ,5,0,0.,4.8,0.,4.8,0.,4.8,0.,4.8
1989-08-26T21:30:17.320 ,5,0,0.,4.8,0.,4.8,0.,4.8,0.,4.8
1989-08-26T21:30:22.120 ,5,0,0.,4.8,0.,4.8,0.,4.8,0.,4.8
1989-08-26T21:30:26.920 ,6,0,0.,4.8,0.,4.8,0.,4.8,0.,4.8
1989-08-26T21:30:31.720 ,6,0,0.,4.8,0.,4.8,0.,4.8,0.,4.8
1989-08-26T21:30:36.520 ,6,0,0.,4.8,0.,4.8,0.,4.8,0.,4.8
1989-08-26T21:30:41.320 ,6,0,0.,4.8,0.,4.8,0.,4.8,0.,4.8
1989-08-26T21:30:46.120 ,6,0,0.,4.8,0.,4.8,0.,4.8,0.,4.8
1989-08-26T21:30:50.920 ,6,0,0.,4.8,0.,4.8,0.,4.8,0.,4.8
1989-08-26T21:30:55.720 ,6,0,0.,4.8,0.,4.8,0.,4.8,0.,4.8
1989-08-26T21:31:00.520 ,6,0,0.,4.8,0.,4.8,0.,4.8,0.,4.8
1989-08-26T21:31:05.320 ,6,0,0.,4.8,0.,4.8,0.,4.8,0.,4.8
1989-08-26T21:31:10.120 ,6,0,0.,4.8,0.,4.8,0.,4.8,0.,4.8
1989-08-26T21:31:14.920 ,7,0,0.,4.8,0.,4.8,0.,4.8,0.,4.8
1989-08-26T21:31:19.720 ,7,0,0.,4.8,0.,4.8,0.,4.8,0.,4.8
1989-08-26T21:31:24.520 ,7,0,0.,4.8,0.,4.8,0.,4.8,0.,4.8
1989-08-26T21:31:29.320 ,7,0,0.,4.8,0.,4.8,0.,4.8,0.,4.8
1989-08-26T21:31:34.120 ,7,0,0.,4.8,0.,4.8,0.,4.8,0.,4.8
1989-08-26T21:31:38.920 ,7,0,0.,4.8,0.,4.8,0.,4.8,0.,4.8
1989-08-26T21:31:43.720 ,7,0,0.,4.8,0.,4.8,0.,4.8,0.,4.8
1989-08-26T21:31:48.520 ,7,0,0.,4.8,0.,4.8,0.,4.8,0.,4.8
1989-08-26T21:31:53.320 ,7,0,0.,4.8,0.,4.8,0.,4.8,0.,4.8
1989-08-26T21:31:58.120 ,7,0,0.,4.8,0.,4.8,0.,4.8,0.,4.8
1989-08-26T21:32:02.920 ,7,0,0.,4.8,0.,4.8,0.,4.8,0.,4.8
1989-08-26T21:32:07.720 ,7,0,0.,4.8,0.,4.8,0.,4.8,0.,4.8
1989-08-26T21:32:12.520 ,7,0,0.,4.8,0.,4.8,0.,4.8,0.,4.8
1989-08-26T21:32:17.320 ,7,0,0.,4.8,0.,4.8,0.,4.8,0.,4.8
1989-08-26T21:32:22.120 ,7,0,0.,4.8,0.,4.8,0.,4.8,0.,4.8
1989-08-26T21:32:26.920 ,7,0,0.,4.8,0.,4.8,0.,4.8,0.,4.8
1989-08-26T21:32:31.720 ,7,0,0.,4.8,0.,4.8,0.,4.8,0.,4.8
1989-08-26T21:32:36.520 ,7,0,0.,4.8,0.,4.8,0.,4.8,0.,4.8
1989-08-26T21:32:41.320 ,7,0,0.,4.8,0.,4.8,0.,4.8,0.,4.8
1989-08-26T21:32:46.120 ,7,0,0.,4.8,0.,4.8,0.,4.8,0.,4.8
1989-08-26T21:32:50.920 ,6,0,0.,4.8,0.,4.8,0.,4.8,0.,4.8
1989-08-26T21:32:55.720 ,6,0,0.,4.8,0.,4.8,0.,4.8,0.,4.8
1989-08-26T21:33:00.520 ,6,0,0.,4.8,0.,4.8,0.,4.8,0.,4.8
1989-08-26T21:33:05.320 ,6,0,0.,4.8,0.,4.8,0.,4.8,0.,4.8
1989-08-26T21:33:10.120 ,6,0,0.,4.8,0.,4.8,0.,4.8,0.,4.8
1989-08-26T21:33:14.920 ,6,0,0.,4.8,0.,4.8,0.,4.8,0.,4.8
1989-08-26T21:33:19.720 ,6,0,0.,4.8,0.,4.8,0.,4.8,0.,4.8
1989-08-26T21:33:24.520 ,6,0,0.,4.8,0.,4.8,0.,4.8,0.,4.8
1989-08-26T21:33:29.320 ,6,0,0.,4.8,0.,4.8,0.,4.8,0.,4.8
1989-08-26T21:33:34.120 ,6,0,0.,4.8,0.,4.8,0.,4.8,0.,4.8
1989-08-26T21:33:38.920 ,5,0,0.,4.8,0.,4.8,0.,4.8,0.,4.8
1989-08-26T21:33:43.720 ,5,0,0.,4.8,0.,4.8,0.,4.8,0.,4.8
1989-08-26T21:33:48.520 ,5,0,0.,4.8,0.,4.8,0.,4.8,0.,4.8
1989-08-26T21:33:53.320 ,5,0,0.,4.8,0.,4.8,0.,4.8,0.,4.8
1989-08-26T21:33:58.120 ,5,0,0.,4.8,0.,4.8,0.,4.8,0.,4.8
1989-08-26T21:34:02.920 ,5,0,0.,4.8,0.,4.8,0.,4.8,0.,4.8
1989-08-26T21:34:07.720 ,5,0,0.,4.8,0.,4.8,0.,4.8,0.,4.8